Content
SEND FEEDBACK

Daily
Averages
Monthly
Summary
United States of America

BLACK HAWK, SOUTH DAKOTA


Home > North America > United States > South Dakota
Elevation: 3352 feet     Latitude: 44 05N     Longitude: 103 16W

WEATHER
 
SELECT A DAY
Number of Records: 204,116;   Date Range: 1/1/95 - 7/29/14
 
SHARE

PRINT THIS DATA

[ ← Previous Day ]
WEATHER ALMANAC - MARCH 28, 2013
[ Next Day → ]
[ °C ]   °F
Weather ElementAverageHighLow
Temperature46.8 °F61.7 °F (3:55 pm)28.6 °F (6:55 am)
Dewpoint25.9 °F29.1 °F (9:55 am)21.9 °F (6:55 am)
Humidity47.3 %76 % (6:55 am)24 % (3:55 pm)
Barometer30.08 in30.11 in (9:55 am)30.05 in (3:55 am)
Wind Speed4 mph6.9 mph (9:55 am)
Weather ElementAverage
Visibility10 mi
Wind DirectionSE (134.3 °)

Weather ElementTotal
Precipitation---
Heating Degree Days19.9 (Base 65)
Averaged from 23 records on March 28, 2013
WEATHER CONDITIONS BREAKOUT
WIND DIRECTION BREAKOUT
WEATHER BY HOUR - MARCH 28, 2013
[ °C ]   °F
Local TimeTemperatureDewpointHumidityBarometerVisibilityWind DirectionWind SpeedGust SpeedPrecipitationEventsConditions
1:55 AM37.2 °F23.7 °F58 %30.07 in10.0 miCalmOvercast
2:55 AM33.6 °F22.6 °F64 %30.06 in10.0 miCalmClear
3:55 AM35.1 °F22.3 °F60 %30.05 in10.0 miCalmMostly Cloudy
4:55 AM31.6 °F22.3 °F68 %30.05 in10.0 miCalmClear
5:55 AM31.5 °F22.3 °F69 %30.05 in10.0 miCalmClear
6:55 AM28.6 °F21.9 °F76 %30.08 in10.0 miWNW (290°)3.5 mphClear
7:55 AM35.2 °F27.0 °F72 %30.09 in10.0 miWest (270°)5.8 mphClear
8:55 AM44.2 °F27.0 °F51 %30.08 in10.0 miNorth (350°)4.6 mphClear
9:55 AM44.1 °F29.1 °F56 %30.11 in10.0 miNNW (340°)6.9 mphClear
10:55 AM49.1 °F25.2 °F39 %30.11 in10.0 miNNW (340°)6.9 mphClear
11:55 AM54.0 °F28.9 °F38 %30.10 in10.0 miNorth (10°)5.8 mphClear
12:55 PM57.6 °F28.9 °F34 %30.08 in10.0 miNE (40°)4.6 mphClear
1:55 PM59.5 °F27.3 °F29 %30.07 in10.0 miEast (80°)5.8 mphClear
2:55 PM61.0 °F25.9 °F26 %30.07 in10.0 miVariable3.5 mphClear
3:55 PM61.7 °F24.8 °F24 %30.05 in10.0 miEast (100°)4.6 mphClear
4:55 PM61.5 °F25.7 °F26 %30.06 in10.0 miENE (70°)4.6 mphMostly Cloudy
5:55 PM60.3 °F25.5 °F27 %30.07 in10.0 miENE (60°)5.8 mphClear
6:55 PM56.1 °F28.4 °F35 %30.09 in10.0 miESE (120°)5.8 mphScattered Clouds
7:55 PM51.8 °F27.9 °F40 %30.10 in10.0 miSE (130°)4.6 mphScattered Clouds
8:55 PM50.0 °F26.6 °F40 %30.09 in10.0 miESE (120°)3.5 mphPartly Cloudy
9:55 PM45.1 °F28.2 °F52 %30.11 in10.0 miWest (260°)3.5 mphMostly Cloudy
10:55 PM44.2 °F26.8 °F50 %30.10 in10.0 miWSW (250°)5.8 mphMostly Cloudy
11:55 PM43.3 °F27.1 °F53 %30.10 in10.0 miWest (260°)6.9 mphClear
Hourly data recorded from KRCA, located miles away from Black Hawk, South Dakota







STORIES FROM OUR PARTNERS